STARLINK-34217

导读

STARLINK-34217是美国SpaceX公司星链(Starlink)低轨卫星互联网星座计划中的一颗卫星,于2025年6月23日由美国发射入轨。 星链项目旨在通过大规模低轨卫星组网,为全球偏远无基础设施覆盖区域提供高速低延迟宽带服务,该卫星属于星链2025年规模化部署的组网卫星,将服务全球卫星互联网接入,助力星链扩大覆盖范围与网络容量,目前星链服务已覆盖全球百余个国家和地区。

基本信息
目录编号:
64488
目录名称:
STARLINK-34217
国际标识:
2025-133S
轨道中心:
EARTH
卫星名称:
STARLINK-34217
卫星全名:
STARLINK-34217
卫星状态:
在轨 (已飞行438 天)
发射日期:
2025-06-23 UTC
国别 :
美国 (US)
星等 :
--
轨道信息
数据来源 国际轨道数据
星历时间: 2026-09-04T15:02:49+0800
9小时前
查看轨道信息
半长轴: 6840.851km
偏心率: 0.0001042
轨道倾角: 53.158°
近地点辐角 108.178°
升交点赤经 5.772°
平近点角 251.933°
近地点: 462.001km
远地点: 463.427km
周期: 93.848分钟
每日圈数: 15.343966
详细信息
使用方式:
暂无
2D轨道图
3D轨道图
轨道高度分析图
轨道倾角分析图
轨道综合分析图
查看轨道综合分析图
交会数据列表
事件ID 空间交会对象 最接近时刻(TCA) 交会距离 交会风险概率(CRP) 交会风险指数(CRI) 操作
CDM_260906-031805-081906-448821
2026-09-06T
03:18:30+0000
0.276 km
中距离
4.206276E-4 高风险 0.87
CDM_260906-150105-081906-448821
2026-09-06T
15:01:57+0000
1.148 km
极远距离
1.009097E-5 中风险 0.55
CDM_260906-132805-081906-448821
2026-09-06T
13:28:09+0000
2.266 km
极远距离
1.379179E-6 低风险 0.38
CDM_260906-190304-940906-448821
2026-09-06T
19:03:47+0000
2.924 km
极远距离
1.171266E-6 低风险 0.36
CDM_260906-014405-081906-448822
2026-09-06T
01:44:42+0000
2.639 km
极远距离
1.054803E-6 低风险 0.35
CDM_260906-045205-081906-448821
2026-09-06T
04:52:17+0000
2.995 km
极远距离
8.939714E-7 极低风险 0.34
CDM_260906-101705-254106-448821
2026-09-06T
10:17:24+0000
2.682 km
极远距离
7.257804E-7 极低风险 0.32